Location: Newark
(40.9833°N, 0.0333°W)
Time: 08:36:54
(UTC+00:00)

Transit 4A - Pass Details

Date: 29 October 2020
Orbit: 862 x 982 km, 66.8° (Epoch: 28 November)

Event Time Altitude Azimuth Distance (km) Brightness Sun altitude
Rises 22:39:25 0° 335° (NNW) 3,694 11.5 -59.4°
Enters shadow 22:39:30 - 336° (NNW) 3,669 11.5 -59.5°
Reaches altitude 10° 22:42:18 10° 345° (NNW) 2,741 - -59.7°
Maximum altitude 22:48:03 34° 49° (NE) 1,564 - -60.3°
Drops below altitude 10° 22:53:42 10° 112° (ESE) 2,688 - -60.7°
Sets 22:56:29 0° 122° (ESE) 3,614 - -61.0°
